COSMOS 2333

Satellite information

Favourite Embed

Satellite Type and Status

PAYLOADIN ORBIT

Key statistics

Satellite COSMOS 2333 at a glance.

Uptime

10639

Days in orbit

Revolutions

≈ 14.1

Per day

Orbit

LEO

Low Earth Orbit

Inclination

70.9

Latest

Satellite identification and parameters

Extended collection of information and parameters for COSMOS 2333.

Object identification

Identified? True

Debris? False

Object name: COSMOS 2333

International designator: 1996-051A

Object number (NORAD): 24297

Object ID (CCSDS): 24297

Country: COMMONWEALTH OF INDEPENDENT STATES (CIS)

Current information (Y/N): Y

RCS size: LARGE

Orbital parameters

Period: 101.854 minutes

Inclination: 70.9019 deg

SMA: 7224.586 km

Apoapsis: 865.251 km

Periapsis: 827.651 km

RAAN: 120.807 deg

Eccentricy: 0.00260223

Argument of periapsis: 310.4116 deg

Mean anomaly: 49.4734 deg

Mean motion: 14.13784691 rev/day

Mean motion (dot): -0.000002 rev/day2

B* drag term: -0.000079566847 1/REarth

Two-line elements (TLE)

Creation date: Oct. 20, 2025, 2:10 a.m.

Reference frame: TEME

Reference center: EARTH

Epoch: Oct. 19, 2025, 10:54 p.m. UTC

TLE line 0: 0 COSMOS 2333

TLE line 1: 1 24297U 96051A 25292.95429673 -.00000200 00000-0 -79567-4 0 9992

TLE line 2: 2 24297 70.9019 120.8070 0026022 310.4116 49.4734 14.13784691502347

Live tracking on map

Real-time ground track for satellite COSMOS 2333.

In-orbit conjunctions

A list of the most updated potential collisions computed for object COSMOS 2333.

Target Orbit TCA Probability of collision Miss distance Type
DMSP 5D-2 F14 DEB SSO 2025-06-27 23:40:48 0.0001996759 794.0 (m) DEBRIS
SL-14 DEB LEO 2025-02-27 20:17:34 0.0001485943 558.0 (m) DEBRIS
NOAA 16 DEB SSO 2025-02-18 16:23:27 0.0003035797 157.0 (m) DEBRIS
FENGYUN 1C DEB SSO 2025-01-25 09:56:40 0.0001641356 821.0 (m) DEBRIS
THOR ABLESTAR DEB LEO 2025-01-20 00:59:16 0.000139532 430.0 (m) DEBRIS

Associated space launch

Second generation ELING satellite

COSMOS 2333 was lifted into orbit during the mission ‘Zenit-2 | Tselina-2 18’, on board a Zenit-2 space rocket.

The launch took place on Sept. 4, 1996, 9:01 a.m. from 45/1.

For more information about the launch, click the button.

Launch to space Zenit-2 | Tselina-2 18
Zenit-2 | Tselina-2 18

Agency: N/A

Status: Launch Successful

Launch date: Sept. 4, 1996, 9:01 a.m. UTC

Rocket: Zenit-2

Launch pad: 45/1

Location: Baikonur Cosmodrome, Republic of Kazakhstan

...

Latest news about this satellite

There are no fresh news available about this satellite. Check back as we update our databases every day.


Newsletter sign-up

Weekly statistics, charts and insights to help you stay on top of the space industry.